Location: Vancouver
(49.2500°N, 123.1330°W)
Time: 21:38:34
(UTC-08:00)

Vanguard 2 Rocket - Visible Passes

Search period start: 31 January 2015 00:00
Search period end: 10 February 2015 00:00
Orbit: 553 x 3334 km, 32.9° (Epoch: 31 January)

Date Brightness Start Highest point End Pass type
(mag) Time Alt. Az. Time Alt. Az. Time Alt. Az.
31 Jan 10.3 17:57:18 10° S 18:09:40 21° SSE 18:21:03 10° ESE visible
31 Jan 9.5 20:09:05 10° SW 20:25:07 35° SSE 20:27:50 34° SSE visible
31 Jan 10.0 22:25:24 10° WSW 22:33:43 28° SW 22:33:43 28° SW visible
01 Feb 9.8 19:09:12 10° SSW 19:25:11 33° SSE 19:32:39 23° ESE visible
01 Feb 9.6 21:24:25 10° WSW 21:38:33 39° SSW 21:38:33 39° SSW visible
01 Feb 10.5 23:42:16 10° WSW 23:44:27 14° WSW 23:44:27 14° WSW visible
02 Feb 10.2 18:10:02 10° SSW 18:25:08 29° SSE 18:37:27 12° ESE visible
02 Feb 9.5 20:23:43 10° SW 20:40:47 40° S 20:43:21 38° SSE visible
02 Feb 10.0 22:40:55 10° WSW 22:49:14 27° SW 22:49:14 27° SW visible
03 Feb 9.7 19:23:28 10° SW 19:40:46 39° SSE 19:48:08 28° SE visible
03 Feb 9.6 21:39:43 10° WSW 21:54:01 39° SSW 21:54:01 39° SSW visible
03 Feb 10.6 23:58:18 10° W 23:59:54 13° WSW 23:59:54 13° WSW visible
04 Feb 10.1 18:23:49 10° SW 18:40:35 35° SSE 18:52:53 15° ESE visible
04 Feb 9.4 20:38:47 10° WSW 20:56:25 43° S 20:58:46 41° SSE visible
04 Feb 10.1 22:56:38 10° WSW 23:04:40 26° WSW 23:04:40 26° WSW visible
05 Feb 10.4 17:24:51 10° SSW 17:40:24 31° SSE 17:55:07 10° E visible
05 Feb 9.6 19:38:16 10° SW 19:56:20 43° S 20:03:31 31° SE visible
05 Feb 9.7 21:55:15 10° WSW 22:09:24 38° SSW 22:09:24 38° SSW visible
06 Feb 10.7 00:14:43 10° W 00:15:17 11° W 00:15:17 11° W visible
06 Feb 10.0 18:38:17 10° SW 18:56:03 41° SSE 19:08:14 18° ESE visible
06 Feb 9.5 20:54:09 10° WSW 21:11:59 44° S 21:14:08 42° S visible
06 Feb 10.3 23:12:38 10° W 23:20:01 23° WSW 23:20:01 23° WSW visible
07 Feb 10.3 17:38:55 10° SW 17:55:43 37° SSE 18:11:33 10° E visible
07 Feb 9.6 19:53:27 10° WSW 20:11:53 45° S 20:18:51 33° SE visible
07 Feb 9.8 22:11:00 10° W 22:24:44 35° SW 22:24:44 35° SW visible
08 Feb 10.0 18:53:14 10° SW 19:11:32 45° S 19:23:33 20° ESE visible
08 Feb 9.6 21:09:44 10° WSW 21:27:28 42° SSW 21:29:27 40° S visible
08 Feb 10.4 23:29:02 10° W 23:35:20 19° WSW 23:35:20 19° WSW visible
09 Feb 10.2 17:53:35 10° SW 18:11:05 42° SSE 18:27:40 10° ESE visible
09 Feb 9.7 20:08:53 10° WSW 20:27:24 45° S 20:34:10 34° SE visible
09 Feb 10.0 22:27:00 10° W 22:40:03 30° SW 22:40:03 30° SW visible
